Location: Unspecified
(0.0000°N, 0.0000°E)
Time: 15:52:48
(UTC+00:00)

Cosmos 2058 - Pass Details

Date: 30 April 2019
Orbit: 561 x 585 km, 82.5° (Epoch: 25 May)

Event Time Altitude Azimuth Distance (km) Brightness Sun altitude
Rises 05:11:48 0° 147° (SSE) 2,807 6.7 -11.0°
Reaches altitude 10° 05:15:28 10° 114° (ESE) 1,903 6.4 -10.1°
Maximum altitude 05:16:53 12° 94° (E) 1,804 6.7 -9.8°
Drops below altitude 10° 05:18:18 10° 74° (ENE) 1,898 7.3 -9.4°
Sets 05:21:56 0° 41° (NE) 2,789 7.4 -8.6°
